User: anonymous   Login
Location: *
(43.9900°N, 3.4811°E)
Time: 19:15:32
(UTC+00:00)
Language:

Nadezhda 1 Rocket - Orbit

View from above orbital plane
View from above orbital plane
View from above satellite
View from above satellite

Ground track
Ground track

The orbit data is extracted from the following two-line orbital elements,

1 20104U 89050B   19296.38771708  .00000103  00000-0  88843-4 0  9996
2 20104  82.9548 254.8767 0042401 302.6988  57.0084 13.77307739522742
Epoch (UTC): 23 October 2019 09:18:18
Eccentricity: 0.0042401
inclination: 82.9548°
perigee height: 942 km
apogee height: 1004 km
right ascension of ascending node: 254.8767°
argument of perigee: 302.6988°
revolutions per day: 13.77307739
mean anomaly at epoch: 57.0084°
orbit number at epoch: 52274

The dashed part of the orbit path shows where the satellite is in the earth's shadow,  

DLR